Regional Weather Roundup
Issued by NWS

Home | Current Version | Previous Version | Graphics & Text | Print | Product List | Glossary On
Versions: 1 2 3 4 5 6 7 8 9 10 11 12 13 14 15 16 17 18 19 20 21 22 23 24 25 26 27 28 29 30 31 32 33 34 35 36 37 38 39 40 41 42 43 44 45 46 47 48 49 50
000
ASUS43 KLSX 021959
RWRMO

WEATHER SUMMARY FOR MISSOURI
NATIONAL WEATHER SERVICE SPRINGFIELD MO
300 PM CDT TUE JUN 02 2015

NOTE: "FAIR" INDICATES FEW OR NO CLOUDS BELOW 12,000 FEET WITH NO
       SIGNIFICANT WEATHER AND/OR OBSTRUCTIONS TO VISIBILITY.
       CURRENT SKY AND/OR WEATHER CONDITIONS ARE NOT AVAILABLE FOR
       CHILLICOTHE AND FARMINGTON.

MOZ001>031-035>038-043-044-053-054-022100-
...NORTHERN AND WESTERN MISSOURI...

CITY           SKY/WX    TMP DP  RH WIND       PRES   REMARKS
KANSAS CTY INT CLOUDY    73  61  65 SE15      30.01F
KANSAS C DTWN  PTSUNNY   75  60  59 SE10      30.00F
LEE`S SUMMIT   CLOUDY    71  59  65 SE10      30.02F
ST JOSEPH      PTSUNNY   72  60  66 SE12      30.01S
CHILLICOTHE      N/A     69  56  62 SE8       30.06F
KIRKSVILLE     CLOUDY    69  58  67 SE10      30.07F

$$
MOZ066>068-077>081-088>096-101>105-022100-
...SOUTHWEST MISSOURI...

CITY           SKY/WX    TMP DP  RH WIND       PRES   REMARKS
SPRINGFIELD    MOSUNNY   72  60  66 SW6       30.04F
JOPLIN         CLOUDY    79  65  62 SE6       30.01F

$$
MOZ032>034-039>042-045>050-055>058-069>072-022100-
...CENTRAL MISSOURI...

CITY           SKY/WX    TMP DP  RH WIND       PRES   REMARKS
COLUMBIA       CLOUDY    69  56  62 SE10      30.06F
JEFFERSON CITY CLOUDY    69  56  62 E10G20    30.06F
ROLLA          CLOUDY    65  57  75 SE8       30.05F
SEDALIA        PTSUNNY   71  57  61 E9        30.05F
OSAGE BEACH    CLOUDY    70  54  56 S10       30.06F

$$
MOZ051-052-059>065-022100-
...EAST CENTRAL MISSOURI...

CITY           SKY/WX    TMP DP  RH WIND       PRES   REMARKS
ST LOUIS INTL  MOSUNNY   73  55  53 E6        30.07F
SPIRIT OF STL  CLOUDY    70  56  61 VRB3      30.06F
ST CHARLES     PTSUNNY   72  57  59 E10       30.06F

$$
MOZ072>076-082>087-097>100-106>115-022100-
...SOUTH CENTRAL AND SOUTHEAST MISSOURI...

CITY           SKY/WX    TMP DP  RH WIND       PRES   REMARKS
CAPE GIRARDEAU CLOUDY    65  58  78 E5        30.07F
FARMINGTON     CLOUDY    63  55  77 CALM      30.13S
POPLAR BLUFF   CLOUDY    65  55  70 NE3       30.07F
WEST PLAINS    PTSUNNY   70  56  61 E6        30.07F

$$


USA.gov is the U.S. government's official web portal to all federal, state and local government web resources and services.